Waarnemingen

Advertentie
Mijn weer
Capo Carbonara, Italië (16564): temperatuur & dauwpunt: 18.02.2018 13:00:00 - 24.02.2018 13:00:00 (CET)Capo Carbonara, Italië (16564): windsnelheid: 18.02.2018 13:00:00 - 24.02.2018 13:00:00 (CET)Capo Carbonara, Italië (16564): windrichting: 18.02.2018 13:00:00 - 24.02.2018 13:00:00 (CET)Capo Carbonara, Italië (16564): luchtdruk: 18.02.2018 13:00:00 - 24.02.2018 13:00:00 (CET)Capo Carbonara, Italië (16564): zicht: 18.02.2018 13:00:00 - 24.02.2018 13:00:00 (CET)
Datum & Tijd tt [°C] td [°C] ff [km/u] ff [kn] dd ppp [hPa] vv [km]
24.02.2018 13:00:00 - - - - - - -
24.02.2018 12:00:00 12,0 8,0 41 22 WZW - 10
24.02.2018 11:00:00 11,0 7,0 42 23 WZW - 10
24.02.2018 10:00:00 10,0 6,4 44 24 WZW 1004,5 20
24.02.2018 09:00:00 10,0 6,0 48 26 WZW - 10
24.02.2018 08:00:00 9,0 5,0 42 23 WZW - 10
24.02.2018 07:00:00 9,2 5,9 52 28 WZW 1003,6 20
24.02.2018 06:00:00 9,0 6,0 48 26 WZW - 10
24.02.2018 05:00:00 9,0 6,0 48 26 WZW - 10
24.02.2018 04:00:00 8,2 5,3 48 26 W 1003,0 20
24.02.2018 03:00:00 8,0 6,0 42 23 W - 10
24.02.2018 02:00:00 9,0 6,0 41 22 WZW - 10
24.02.2018 01:00:00 8,4 5,5 41 22 W 1002,8 20
24.02.2018 00:00:00 8,0 6,0 41 22 W - 10
23.02.2018 23:00:00 8,0 6,0 34 18 W - 10
23.02.2018 22:00:00 9,0 7,4 46 25 WZW 1002,0 20
23.02.2018 21:00:00 9,0 7,0 48 26 W - 10
23.02.2018 20:00:00 10,0 8,0 31 17 W - 10
23.02.2018 19:00:00 10,2 7,8 44 24 W 1000,6 20
23.02.2018 18:00:00 12,0 5,0 42 23 W - 10
23.02.2018 17:00:00 13,0 7,0 37 20 W - 10
23.02.2018 16:00:00 13,2 8,5 48 26 WZW 999,0 20
23.02.2018 15:00:00 13,0 8,0 48 26 WZW - 10
23.02.2018 14:00:00 12,0 8,0 44 24 WZW - 10
23.02.2018 13:00:00 12,0 8,3 39 21 WZW 999,6 30
23.02.2018 12:00:00 11,0 7,0 28 15 WZW - 10
23.02.2018 11:00:00 11,0 7,0 22 12 WZW - 10
23.02.2018 10:00:00 9,2 5,6 0 0 N 1000,8 40
23.02.2018 09:00:00 8,0 4,0 0 0 N - 10
23.02.2018 08:00:00 8,0 4,0 8 4 WNW - 10
23.02.2018 07:00:00 7,8 3,8 11 6 NNW 1000,0 20
23.02.2018 06:00:00 7,0 5,0 9 5 W - 10
23.02.2018 05:00:00 7,0 4,0 16 9 N - 10
23.02.2018 04:00:00 7,2 5,5 15 8 NNO 1000,2 18
23.02.2018 03:00:00 8,0 6,0 8 4 W - 10
23.02.2018 02:00:00 8,0 6,0 9 5 W - 10
23.02.2018 01:00:00 7,8 6,3 9 5 WZW 1000,8 20
23.02.2018 00:00:00 8,0 6,0 8 4 NNW - 10
22.02.2018 23:00:00 8,0 6,0 5 3 NNW - 10
22.02.2018 22:00:00 8,0 6,1 18 10 W 1000,4 20
22.02.2018 21:00:00 8,0 7,0 16 9 WNW - 10
22.02.2018 20:00:00 9,0 7,0 24 13 W - 10
22.02.2018 19:00:00 9,6 8,1 11 6 NW 999,7 20
22.02.2018 18:00:00 11,0 8,0 18 10 ZZW - 10
22.02.2018 17:00:00 12,0 8,0 41 22 WZW - 10
22.02.2018 16:00:00 12,0 7,9 41 22 WZW 998,4 20
22.02.2018 15:00:00 12,0 8,0 34 18 WZW - 10
22.02.2018 14:00:00 12,0 8,0 31 17 WZW - 10
22.02.2018 13:00:00 11,4 7,7 28 15 ZW 998,9 25
22.02.2018 12:00:00 10,0 8,0 26 14 WZW - 10
22.02.2018 11:00:00 9,0 7,0 22 12 WZW - 10
22.02.2018 10:00:00 7,2 5,0 21 11 N 999,1 20
22.02.2018 09:00:00 6,0 4,0 26 14 N - 10
22.02.2018 08:00:00 6,0 4,0 15 8 NNW - 8
22.02.2018 07:00:00 6,2 4,2 13 7 WNW 999,5 8
22.02.2018 06:00:00 6,0 5,0 13 7 NW - 8
22.02.2018 05:00:00 6,0 5,0 21 11 NNO - 8
22.02.2018 04:00:00 6,6 5,1 22 12 NNO 999,8 10
22.02.2018 03:00:00 7,0 5,0 22 12 NNO - 10
22.02.2018 02:00:00 7,0 6,0 28 15 NO - 10
22.02.2018 01:00:00 7,2 6,3 24 13 NNO 1000,9 8
22.02.2018 00:00:00 9,0 8,0 21 11 ZO - 8
21.02.2018 23:00:00 10,0 8,0 22 12 ZZO - 10
21.02.2018 22:00:00 10,4 7,5 11 6 ZO 1001,4 10
21.02.2018 21:00:00 10,0 8,0 13 7 Z - 10
21.02.2018 20:00:00 10,0 7,0 11 6 Z - 10
21.02.2018 19:00:00 10,4 6,5 13 7 Z 1001,0 18
21.02.2018 18:00:00 11,0 6,0 13 7 Z - 10
21.02.2018 17:00:00 13,0 6,0 16 9 ZZW - 10
21.02.2018 16:00:00 13,0 2,8 13 7 Z 1001,4 20
21.02.2018 15:00:00 13,0 2,0 15 8 Z - 10
21.02.2018 14:00:00 13,0 3,0 9 5 ZW - 10
21.02.2018 13:00:00 13,0 5,4 21 11 WZW 1002,2 25
21.02.2018 12:00:00 11,0 6,0 26 14 WZW - 10
21.02.2018 11:00:00 10,0 5,0 8 4 NNO - 10
21.02.2018 10:00:00 8,4 3,5 8 4 Z 1002,4 25
21.02.2018 09:00:00 8,0 4,0 15 8 W - 10
21.02.2018 08:00:00 8,0 4,0 4 2 WNW - 10
21.02.2018 07:00:00 7,8 5,9 15 8 W 1002,4 20
21.02.2018 06:00:00 8,0 5,0 21 11 W - 10
21.02.2018 05:00:00 8,0 5,0 13 7 W - 10
21.02.2018 04:00:00 8,0 3,7 11 6 NNW 1002,6 20
21.02.2018 03:00:00 8,0 4,0 18 10 N - 10
21.02.2018 02:00:00 8,0 5,0 22 12 N - 10
21.02.2018 01:00:00 7,8 4,9 15 8 NNW 1002,9 20
21.02.2018 00:00:00 7,0 5,0 16 9 N - 10
20.02.2018 23:00:00 7,0 6,0 21 11 N - 10
20.02.2018 22:00:00 7,4 5,7 26 14 N 1002,7 20
20.02.2018 21:00:00 8,0 6,0 11 6 NNO - 10
20.02.2018 20:00:00 8,0 7,0 15 8 W - 10
20.02.2018 19:00:00 8,0 7,3 26 14 W 1002,7 20
20.02.2018 18:00:00 8,0 7,0 26 14 W - 10
20.02.2018 17:00:00 9,0 8,0 18 10 W - 10
20.02.2018 16:00:00 8,8 7,2 18 10 WZW 1004,0 20
20.02.2018 15:00:00 9,0 7,0 15 8 WZW - 10
20.02.2018 14:00:00 9,0 7,0 29 16 WZW - 10
20.02.2018 13:00:00 10,0 4,0 31 17 ZW 1006,8 20
20.02.2018 12:00:00 10,0 8,0 54 29 WZW - 10
20.02.2018 11:00:00 10,0 7,0 35 19 WZW - 10
20.02.2018 10:00:00 10,0 6,9 22 12 W 1008,6 20
20.02.2018 09:00:00 10,0 7,0 24 13 WZW - 10
20.02.2018 08:00:00 10,0 6,0 21 11 WZW - 10
20.02.2018 07:00:00 9,6 5,0 26 14 W 1009,4 18
20.02.2018 06:00:00 9,0 3,0 15 8 W - 10
20.02.2018 05:00:00 9,0 3,0 5 3 NNW - 10
20.02.2018 04:00:00 8,6 7,8 15 8 W 1010,3 20
20.02.2018 03:00:00 9,0 8,0 35 19 WZW - 10
20.02.2018 02:00:00 9,0 7,0 24 13 W - 10
20.02.2018 01:00:00 9,2 6,3 11 6 W 1011,4 20
20.02.2018 00:00:00 9,0 6,0 15 8 WNW - 10
19.02.2018 23:00:00 10,0 7,0 29 16 W - 10
19.02.2018 22:00:00 10,2 5,6 21 11 W 1012,3 20
19.02.2018 21:00:00 10,0 5,0 15 8 NNW - 10
19.02.2018 20:00:00 11,0 7,0 28 15 W - 10
19.02.2018 19:00:00 11,4 7,3 34 18 W 1012,2 20
19.02.2018 18:00:00 12,0 9,0 29 16 W - 10
19.02.2018 17:00:00 13,0 8,0 34 18 WNW - 10
19.02.2018 16:00:00 12,8 9,4 35 19 WNW 1012,1 20
19.02.2018 15:00:00 12,0 10,0 31 17 W - 10
19.02.2018 14:00:00 13,0 11,0 50 27 W - 10
19.02.2018 13:00:00 12,8 10,2 42 23 W 1013,1 20
19.02.2018 12:00:00 12,0 10,0 31 17 W - 10
19.02.2018 11:00:00 13,0 10,0 28 15 W - 10
19.02.2018 10:00:00 11,0 10,2 26 14 WZW 1013,7 20
19.02.2018 09:00:00 11,0 9,0 13 7 W - 10
19.02.2018 08:00:00 11,0 9,0 4 2 - - 10
19.02.2018 07:00:00 10,6 7,7 5 3 ZW 1013,5 20
19.02.2018 06:00:00 11,0 7,0 0 0 N - 10
19.02.2018 05:00:00 11,0 8,0 24 13 W - 10
19.02.2018 04:00:00 10,6 8,4 22 12 W 1013,0 10
19.02.2018 03:00:00 10,0 8,0 28 15 W - 10
19.02.2018 02:00:00 10,0 7,0 22 12 W - 10
19.02.2018 01:00:00 10,4 7,5 21 11 W 1013,6 18
19.02.2018 00:00:00 10,0 7,0 28 15 W - 10
18.02.2018 23:00:00 10,0 7,0 34 18 W - 10
18.02.2018 22:00:00 10,8 5,6 44 24 W 1013,8 20
18.02.2018 21:00:00 11,0 6,0 54 29 W - 10
18.02.2018 20:00:00 11,0 6,0 57 31 W - 10
18.02.2018 19:00:00 11,0 5,8 50 27 WNW 1013,5 20
18.02.2018 18:00:00 12,0 7,0 50 27 W - 10
18.02.2018 17:00:00 15,0 9,0 52 28 W - 10
18.02.2018 16:00:00 15,0 10,2 59 32 W 1012,9 20
18.02.2018 15:00:00 15,0 11,0 59 32 W - 10
18.02.2018 14:00:00 15,0 11,0 55 30 WZW - 10
18.02.2018 13:00:00 15,0 10,4 48 26 W 1014,5 25

tt = temperatuur
td = dauwpunt
ff = windsnelheid
dd = windrichting
ppp = luchtdruk
vv = zicht

Weerstations in de omgeving